Regional Weather Roundup
Issued by NWS

Home | Current Version | Previous Version | Text Only | Print | Product List | Glossary On
Versions: 1 2 3 4 5 6 7 8 9 10 11 12 13 14 15 16 17 18 19 20 21 22 23 24 25 26 27 28 29 30 31 32 33 34 35 36 37 38 39 40 41 42 43 44 45 46 47 48 49 50
000
ASCA44 KEWX 280820
RWRMX

LATIN AMERICA AND CARIBBEAN REGIONAL WEATHER ROUNDUP
NATIONAL WEATHER SERVICE AUSTIN/SAN ANTONIO TX
300 AM CDT SAT MAY 28 2016

NOTE: "FAIR" INDICATED FEW OR NO CLOUDS BELOW 12,000 FEET WITH NO
SIGNIFICANT WEATHER AND/OR OBSTRUCTIONS TO VISIBILITY.

BAJA CALIFORNIA

CITY           SKY/WX    TMP DP  RH WIND       PRES   REMARKS
MEXICALI       CLEAR     72  39  30 N5        29.74S
S.J. DEL CABO    N/A    N/A N/A N/A MISG        N/A
TIJUANA        PTCLDY    57  52  82 N5        29.91S

NORTHWESTERN MEXICO

CITY           SKY/WX    TMP DP  RH WIND       PRES   REMARKS
HERMOSILLO     CLEAR     72  41  33 CALM      29.82

NORTHEASTERN MEXICO

CITY           SKY/WX    TMP DP  RH WIND       PRES   REMARKS
MONCLOVA         N/A    N/A N/A N/A MISG        N/A
MONTERREY      CLEAR     72  63  73 W6        29.74F
REYNOSA          N/A    N/A N/A N/A MISG        N/A
CD. VICTORIA     N/A    N/A N/A N/A MISG        N/A

WESTERN MEXICO

CITY           SKY/WX    TMP DP  RH WIND       PRES   REMARKS
AGUASCALIENTES   N/A    N/A N/A N/A MISG        N/A
COLIMA           N/A    N/A N/A N/A MISG        N/A
GUADALAJARA    CLEAR     70  50  49 W3        30.08F
MAZATLAN       CLEAR     70  64  83 CALM      29.79F
P. VALLARTA    CLEAR     73  70  88 CALM      29.80F
URUAPAN          N/A    N/A N/A N/A MISG        N/A
ZACATECAS        N/A    N/A N/A N/A MISG        N/A

CENTRAL MEXICO

CITY           SKY/WX    TMP DP  RH WIND       PRES   REMARKS
CUERNAVACA       N/A    N/A N/A N/A MISG        N/A
MEXICO CITY    PTCLDY    59  55  88 NW3       30.26F
MORELIA        MOCLDY    66  52  59 W7        30.15R
POZA RICA        N/A    N/A N/A N/A MISG        N/A
QUERETARO      MOCLDY    61  57  88 E6        30.24
S. LUIS POTOSI   N/A    N/A N/A N/A MISG        N/A
TOLUCA         PTCLDY    57  52  82 S10       30.34F

SOUTHERN MEXICO

CITY           SKY/WX    TMP DP  RH WIND       PRES   REMARKS
ACAPULCO       PTCLDY    81  73  78 W5        29.81F
B. DE HUATULCO   N/A    N/A N/A N/A MISG        N/A
P. ESCONDIDO     N/A    N/A N/A N/A MISG        N/A
VERACRUZ         N/A    N/A N/A N/A MISG        N/A

YUCATAN PENINSULA

CITY           SKY/WX    TMP DP  RH WIND       PRES   REMARKS
CAMPECHE         N/A    N/A N/A N/A MISG        N/A
CANCUN         CLEAR     81  75  83 E7        29.87F
CHETUMAL         N/A    N/A N/A N/A MISG        N/A
CD. DEL CARMEN   N/A    N/A N/A N/A MISG        N/A
COZUMEL        PTCLDY    75  73  94 SE5       29.87S
MERIDA         CLEAR     82  70  65 E14       29.82F
MINATITLAN       N/A    N/A N/A N/A MISG        N/A
TAPACHULA      MOCLDY    79  77  94 CALM      29.79F

CENTRAL AMERICA

CITY           SKY/WX    TMP DP  RH WIND       PRES   REMARKS

CARIBBEAN

CITY           SKY/WX    TMP DP  RH WIND       PRES   REMARKS
CURACAO        PTCLDY    82  77  83 E15       29.86S HX  91
KINGSTON       PTCLDY    81  72  74 N9        29.86F
NASSAU         PTCLDY    75  72  88 CALM      29.95S
SAN JUAN       PTCLDY    79  75  89 CALM      29.96R
SANTO DOMINGO  PTCLDY    75  73  94 VRB3      29.92S
ST. CROIX      PTCLDY    81  75  83 E12       29.96
ST. MAARTEN    MOCLDY    82  75  78 E10       29.94S
ST. THOMAS     PTCLDY    82  75  78 E10       29.95

$$




USA.gov is the U.S. government's official web portal to all federal, state and local government web resources and services.